This demonstration page uses our WeatherBlox Daily Observations layout. Learn more.

Left ArrowRight Arrow

Hourly Observations for April 7, 2017

Temp ( °F °C ) Dew Point ( °F °C ) Humidity (%) Winds ( mph kmh ) Pressure ( in mb ) Visibility ( mi km ) Precip ( " mm )
12:15 am 00:15 Clear 39 4 25 -4 56 56 SE 9 15 30.27 1025 10 16 0.00 0.00
12:35 am 00:35 Clear 37 3 25 -4 60 60 SSE 8 13 30.30 1026 10 16 0.00 0.00
12:55 am 00:55 Clear 39 4 25 -4 56 56 SSE 9 15 30.27 1025 10 16 0.00 0.00
1:15 am 01:15 Clear 37 3 25 -4 60 60 SE 9 15 30.30 1026 10 16 0.00 0.00
1:35 am 01:35 Clear 37 3 25 -4 60 60 SSE 8 13 30.24 1024 10 16 0.00 0.00
1:55 am 01:55 Clear 39 4 25 -4 56 56 SSE 9 15 30.24 1024 10 16 0.00 0.00
2:15 am 02:15 Clear 37 3 25 -4 60 60 SSE 8 13 30.30 1026 10 16 0.00 0.00
2:35 am 02:35 Clear 37 3 25 -4 60 60 SSE 8 13 30.24 1024 10 16 0.00 0.00
2:55 am 02:55 Clear 37 3 25 -4 60 60 SSE 8 13 30.24 1024 10 16 0.00 0.00
3:15 am 03:15 Clear 39 4 25 -4 56 56 SSE 8 13 30.24 1024 10 16 0.00 0.00
3:35 am 03:35 Clear 39 4 25 -4 56 56 SSE 9 15 30.24 1024 10 16 0.00 0.00
3:55 am 03:55 Clear 39 4 25 -4 56 56 S 9 15 30.24 1024 10 16 0.00 0.00
4:15 am 04:15 Clear 39 4 25 -4 56 56 SSE 8 13 30.21 1023 10 16 0.00 0.00
4:35 am 04:35 Clear 37 3 25 -4 60 60 SSE 10 17 30.21 1023 10 16 0.00 0.00
4:55 am 04:55 Clear 37 3 25 -4 60 60 SSE 9 15 30.21 1023 10 16 0.00 0.00
5:15 am 05:15 Clear 37 3 25 -4 60 60 SSE 8 13 30.21 1023 10 16 0.00 0.00
5:35 am 05:35 Clear 37 3 25 -4 60 60 SSE 8 13 30.21 1023 10 16 0.00 0.00
5:55 am 05:55 Clear 37 3 27 -3 65 65 SSE 9 15 30.21 1023 10 16 0.00 0.00
6:15 am 06:15 Clear 36 2 25 -4 65 65 SSE 7 11 30.24 1024 10 16 0.00 0.00
6:35 am 06:35 Clear 36 2 27 -3 70 70 SSE 8 13 30.21 1023 10 16 0.00 0.00
6:55 am 06:55 Clear 36 2 27 -3 70 70 SSE 7 11 30.21 1023 10 16 0.00 0.00
7:15 am 07:15 Sunny 34 1 25 -4 70 70 SSE 5 7 30.21 1023 10 16 0.00 0.00
7:35 am 07:35 Sunny 37 3 28 -2 70 70 S 10 17 30.18 1022 10 16 0.00 0.00
7:55 am 07:55 Sunny 39 4 30 -1 70 70 SSE 12 19 30.18 1022 10 16 0.00 0.00
8:15 am 08:15 Sunny 41 5 30 -1 66 66 S 13 20 30.18 1022 10 16 0.00 0.00
8:35 am 08:35 Sunny 45 7 34 1 66 66 S 14 22 30.15 1021 10 16 0.00 0.00
8:55 am 08:55 Sunny 46 8 32 0 57 57 S 18 30 30.15 1021 10 16 0.00 0.00
9:15 am 09:15 Sunny 48 9 34 1 58 58 S 18 30 30.12 1020 10 16 0.00 0.00
9:35 am 09:35 Sunny 52 11 34 1 50 50 S 23 37 30.09 1019 10 16 0.00 0.00
9:55 am 09:55 Sunny 52 11 34 1 50 50 S 26 43 30.09 1019 10 16 0.00 0.00
10:15 am 10:15 undefined N/A N/A N/A undefined N/A N/A N/A 0.00 0.00
10:35 am 10:35 undefined N/A N/A N/A undefined N/A N/A N/A 0.00 0.00
10:55 am 10:55 undefined N/A N/A N/A undefined N/A N/A N/A 0.00 0.00
11:15 am 11:15 undefined N/A N/A N/A undefined N/A N/A N/A 0.00 0.00
11:35 am 11:35 Sunny 61 16 28 -2 29 29 S 28 44 29.97 1015 10 16 0.00 0.00
11:55 am 11:55 Sunny 61 16 34 1 36 36 S 29 46 29.97 1015 10 16 0.00 0.00
12:15 pm 12:15 Sunny 63 17 36 2 37 37 S 26 43 29.94 1014 10 16 0.00 0.00
12:35 pm 12:35 Sunny 63 17 36 2 37 37 S 26 43 29.94 1014 10 16 0.00 0.00
12:55 pm 12:55 Sunny 64 18 36 2 34 34 S 26 43 29.94 1014 10 16 0.00 0.00
1:15 pm 13:15 Sunny 64 18 36 2 34 34 S 26 43 29.94 1014 10 16 0.00 0.00
1:35 pm 13:35 Sunny 63 17 36 2 37 37 S 29 46 29.91 1013 10 16 0.00 0.00
1:55 pm 13:55 Sunny 63 17 36 2 37 37 S 25 41 29.88 1012 10 16 0.00 0.00
2:15 pm 14:15 Sunny 63 17 36 2 37 37 S 26 43 29.91 1013 10 16 0.00 0.00
2:35 pm 14:35 Sunny 63 17 36 2 37 37 S 25 41 29.88 1012 10 16 0.00 0.00
2:55 pm 14:55 Sunny 66 19 36 2 32 32 S 29 46 29.83 1010 10 16 0.00 0.00
3:15 pm 15:15 Sunny 68 20 36 2 30 30 S 31 50 29.83 1010 10 16 0.00 0.00
3:35 pm 15:35 Sunny 70 21 36 2 29 29 S 28 44 29.80 1009 10 16 0.00 0.00
3:55 pm 15:55 Sunny 70 21 37 3 31 31 S 29 46 29.80 1009 7 11 0.00 0.00
4:15 pm 16:15 Sunny 70 21 37 3 31 31 S 28 44 29.80 1009 9 14 0.00 0.00
4:35 pm 16:35 Sunny 70 21 37 3 31 31 S 29 46 29.77 1008 10 16 0.00 0.00
4:55 pm 16:55 Sunny 70 21 37 3 31 31 S 32 52 29.77 1008 10 16 0.00 0.00
5:15 pm 17:15 Sunny 70 21 37 3 31 31 S 29 46 29.77 1008 10 16 0.00 0.00
5:35 pm 17:35 Sunny 70 21 37 3 31 31 S 30 48 29.77 1008 10 16 0.00 0.00
5:55 pm 17:55 Sunny 70 21 37 3 31 31 S 23 37 29.77 1008 10 16 0.00 0.00
6:15 pm 18:15 Sunny 68 20 37 3 33 33 S 25 41 29.77 1008 10 16 0.00 0.00
6:35 pm 18:35 Sunny 66 19 39 4 37 37 S 26 43 29.77 1008 10 16 0.00 0.00
6:55 pm 18:55 Sunny 66 19 39 4 37 37 S 24 39 29.74 1007 10 16 0.00 0.00
7:15 pm 19:15 Sunny 64 18 39 4 40 40 S 18 30 29.77 1008 10 16 0.00 0.00
7:35 pm 19:35 Sunny 64 18 39 4 40 40 S 15 24 29.77 1008 10 16 0.00 0.00
7:55 pm 19:55 Sunny 63 17 39 4 42 42 S 16 26 29.77 1008 10 16 0.00 0.00
8:15 pm 20:15 Clear 63 17 39 4 42 42 S 16 26 29.77 1008 10 16 0.00 0.00
8:35 pm 20:35 Clear 61 16 39 4 45 45 S 14 22 29.77 1008 10 16 0.00 0.00
8:55 pm 20:55 Clear 59 15 39 4 48 48 SSE 14 22 29.77 1008 10 16 0.00 0.00
9:15 pm 21:15 Clear 57 14 39 4 51 51 SSE 15 24 29.77 1008 10 16 0.00 0.00
9:35 pm 21:35 Clear 55 13 39 4 55 55 SSE 10 17 29.80 1009 10 16 0.00 0.00
9:55 pm 21:55 Clear 55 13 39 4 55 55 SSE 15 24 29.80 1009 10 16 0.00 0.00
10:15 pm 22:15 Clear 55 13 39 4 55 55 SSE 17 28 29.77 1008 10 16 0.00 0.00
10:35 pm 22:35 Clear 55 13 41 5 59 59 S 17 28 29.77 1008 10 16 0.00 0.00
10:55 pm 22:55 Clear 54 12 41 5 63 63 S 14 22 29.77 1008 10 16 0.00 0.00
11:15 pm 23:15 Clear 54 12 41 5 63 63 S 15 24 29.77 1008 10 16 0.00 0.00
11:35 pm 23:35 Clear 55 13 41 5 59 59 S 16 26 29.74 1007 10 16 0.00 0.00
11:55 pm 23:55 Clear 55 13 43 6 63 63 S 18 30 29.74 1007 10 16 0.00 0.00

Powered by AerisWeather